Regional Weather Roundup
Issued by NWS Jackson, KY

Home | Current Version | Previous Version | Graphics & Text | Print | Product List | Glossary On
Versions: 1 2 3 4 5 6 7 8 9 10 11 12 13 14 15 16 17 18 19 20 21 22 23 24 25 26 27 28 29 30 31 32 33 34 35 36 37 38 39 40 41 42 43 44 45 46 47 48 49 50
000
ASUS43 KJKL 301310
RWRJKL

EAST KENTUCKY HOURLY WEATHER ROUNDUP
NATIONAL WEATHER SERVICE JACKSON KY
900 AM EDT SAT JUL 30 2016

NOTE: "FAIR" INDICATES FEW OR NO CLOUDS BELOW 12,000 FEET WITH
NO SIGNIFICANT WEATHER AND/OR OBSTRUCTIONS TO VISIBILITY.

* THESE REPORTS ARE NOT UNDER NWS QUALITY CONTROL AND MAY NOT
  REPORT WEATHER SUCH AS PRECIPITATION AND FOG.

KYZ079-080-083-085-087-088-110-112-115-119-120-301400
...EASTERN KENTUCKY...

CITY           SKY/WX    TMP DP  RH WIND       PRES   REMARKS
JACKSON        CLOUDY    71  69  93 CALM      30.02S
LONDON         MOSUNNY   74  68  81 SW6       30.02S
SOMERSET*      CLOUDY    72  72 100 SW3       30.03R
MONTICELLO*    CLOUDY   N/A N/A N/A NW9       30.04R
WILLIAMSBURG*  CLOUDY    72  72 100 CALM      30.03S
MIDDLESBORO*   PTSUNNY   72  72 100 CALM      30.04R
HARLAN APT*    CLOUDY    70  68  94 CALM      30.05S
PIKE CO APT*   CLOUDY    69  69 100 CALM      30.03R
BIG SANDY APT* CLOUDY    71  70  97 CALM      30.02R
MOREHEAD APT*  PTSUNNY   73  70  88 W6G12     30.01R
ASHLAND*       CLOUDY    73  72  94 CALM      29.95S
$$

KYZ035-036-041-042-044-050-067-078-099-301400
...CENTRAL KENTUCKY...

CITY           SKY/WX    TMP DP  RH WIND       PRES   REMARKS
MT STERLING*   CLOUDY    72  72 100 W5        30.01R
FLEMING/MASON* CLOUDY    72  71  96 W5        30.00R
DANVILLE*      CLOUDY    73  70  88 W5        30.02R
LEXINGTON      PTSUNNY   74  71  91 SW6       29.99S
FRANKFORT      FOG       72  69  90 SW5       29.98R VSB 1
LOUISVILLE     CLOUDY    75  70  84 VRB5      29.98R HAZE
GLASGOW*       CLOUDY    75  74  96 SW7       30.00S
BOWLING GREEN  CLOUDY    75  71  87 SW10      29.99S
$$

KYZ091>093-OHZ055-061-077-WVZ005-015-034-035-042-301400
...SOUTHERN OHIO/WEST VIRGINIA...

CITY           SKY/WX    TMP DP  RH WIND       PRES   REMARKS
COVINGTON      FOG       72  72 100 W3        29.98R VSB 1/2
COLUMBUS       PTSUNNY   72  69  90 S3        29.95S
DAYTON         CLOUDY    72  69  90 W5        29.98R FOG
WILMINGTON     CLOUDY    70  69  97 W5        29.97R FOG
HUNTINGTON     PTSUNNY   72  69  90 CALM      29.98R
CHARLESTON     PTSUNNY   73  68  84 SE3       29.99R
PINEVILLE*     PTSUNNY   72  66  82 MISG      30.10S
BECKLEY          N/A     70  65  84 SW6       30.08S
BLUEFIELD      CLOUDY    69  64  84 SW5       30.11S
LOGAN CO APT*  PTSUNNY   72  68  88 CALM      30.02S
$$

VAZ002-007-008-TNZ017-027-036-066-071-301400
...SOUTHWEST VIRGINIA/EAST TENNESSEE...

CITY           SKY/WX    TMP DP  RH WIND       PRES   REMARKS
WISE*          RAIN      68  68 100 SW3       30.11F
JONESVILLE*      N/A     70  70 100 CALM      30.08S
ABINGDON*      CLOUDY    70  70 100 CALM      30.10R
BRISTOL        CLOUDY    72  69  90 CALM      30.07R FOG
SEVIERVILLE*   PTSUNNY   72  70  94 CALM      30.04R
KNOXVILLE      LGT RAIN  74  71  91 VRB5      30.03R
OAK RIDGE      CLOUDY    75  70  84 S3        30.04S
CROSSVILLE     PTSUNNY   72  68  87 W8        30.08S
NASHVILLE      CLOUDY    75  71  87 SW5       30.02R
$$

...KEY TO REMARKS...
VSB - VISIBILITY IN MILES
WCI - WIND CHILL INDEX
HX  - HEAT INDEX

$$



USA.gov is the U.S. government's official web portal to all federal, state and local government web resources and services.